Regional Weather Roundup
Issued by NWS

Home | Current Version | Previous Version | Text Only | Print | Product List | Glossary Off
Versions: 1 2 3 4 5 6 7 8 9 10 11 12 13 14 15 16 17 18 19 20 21 22 23 24 25 26 27 28 29 30 31 32 33 34 35 36 37 38 39 40 41 42 43 44 45 46 47 48 49 50

000
ASUS43 KMPX 022301
RWRMN
WEATHER ROUNDUP FOR MINNESOTA
NATIONAL WEATHER SERVICE TWIN CITIES/CHANHASSEN MN
500 PM CST MON MAR 02 2015


NOTE: "FAIR" INDICATES FEW OR NO CLOUDS BELOW 12,000 FEET WITH NO
SIGNIFICANT WEATHER AND/OR OBSTRUCTIONS TO VISIBILITY. N/A MEANS
CURRENT SKY AND/OR WEATHER CONDITIONS ARE NOT AVAILABLE.

MNZ060>063-068>070-030000-
   Twin Cities Metro

CITY           SKY/WX    TMP DP  RH WIND       PRES   REMARKS
TWIN CITIES    MOCLDY    24   7  48 SE13      30.24F WCI  12
ST PAUL        PTCLDY    23   8  52 SE13      30.26F WCI  11
CRYSTAL        MOCLDY    26   6  42 S15       30.22F WCI  14
BLAINE         MOCLDY    28   9  43 SE10      30.23  WCI  19
LAKEVILLE      MOCLDY    21  10  63 SE8       30.24  WCI  12
EDEN PRAIRIE   CLOUDY    25   8  48 S13       30.22F WCI  14
SOUTH ST PAUL  PTCLDY    24   8  49 S6        30.25F WCI  17
LAKE ELMO      FAIR      25  10  54 S10       30.26F WCI  15
$$
MNZ001>005-007-008-013>017-022>024-027-028-030000-
   Northwest Minnesota

CITY           SKY/WX    TMP DP  RH WIND       PRES   REMARKS
BEMIDJI        PTCLDY    25   9  50 S14       30.03F WCI  14
HALLOCK        CLOUDY    25  18  74 S25       29.92F WCI   9
ROSEAU         PTCLDY    25  10  54 S15       29.96F WCI  12
WARROAD        PTCLDY    27  10  50 S13       29.97F WCI  16
THIEF RVR FALL PTSUNNY   25  16  68 S16G23    29.97F WCI  12
CROOKSTON      MOSUNNY   27  18  69 S22       29.99F WCI  12
FOSSTON        PTSUNNY   27  10  50 SE12G18   30.00F WCI  16
DETROIT LAKES  SUNNY     27  14  59 S18       30.03F WCI  13
MOORHEAD       CLOUDY    30  18  59 S29G36    30.00F WCI  15
PARK RAPIDS    MOSUNNY   26   9  48 S20       30.06F WCI  12
MAHNOMEN       CLOUDY    28  13  55 S15G24    30.00F WCI  16
$$
MNZ006-009>011-018-025>026-030000-
   North Central Minnesota

CITY           SKY/WX    TMP DP  RH WIND       PRES   REMARKS
BAUDETTE       CLEAR     25   7  46 S14       30.00F WCI  13
FLAG ISLAND    CLEAR     18  10  73 SE10      29.98F WCI   6
INTL FALLS     CLEAR     27   5  39 S10       30.05F WCI  17
WASKISH        CLEAR     28   7  40 SE9G17    30.03F WCI  20
BIG FORK       CLEAR     27   7  43 S13G20    30.08F WCI  16
LONGVILLE      CLEAR     27   7  43 S12       30.10F WCI  16
GRAND RAPIDS   CLEAR     25   7  46 S13       30.10F WCI  13
CRANE LAKE     CLEAR     27   3  36 S5G16     30.12F WCI  21
ORR            CLEAR     27   1  33 S10G16    30.07F WCI  17
COOK           CLEAR     27   5  39 SW14      30.10F WCI  15
WALKER         FAIR      27   7  42 S12G17    30.07F WCI  16
$$
MNZ012-019>021-037-030000-
   Northeast Minnesota

CITY           SKY/WX    TMP DP  RH WIND       PRES   REMARKS
DULUTH         CLEAR     26   3  37 S15       30.15F WCI  14
ELY            CLEAR     25   3  39 SW12G18   30.12F WCI  14
HIBBING        FAIR      26  -1  31 S9        30.12F WCI  17
EVELETH        CLEAR     27   5  39 S15       30.13F WCI  15
DULUTH HARBOR  CLEAR     28   7  40 S16       30.22F WCI  17
TWO HARBORS    CLEAR     28  10  47 S9        30.16F WCI  20
SILVER BAY     CLEAR     27   5  39 S14       30.16F WCI  15
GRAND MARAIS     N/A     26  15  63 SW15      30.22F WCI  14
G MARAIS ARPRT MOCLDY    18   9  68 S10       30.13F WCI   6
$$
MNZ029>031-032-039>041-046>048-054>057-064-030000-
   West Central Minnesota

CITY           SKY/WX    TMP DP  RH WIND       PRES   REMARKS
FERGUS FALLS   CLOUDY    27  16  63 S21G26    30.08F WCI  13
WHEATON        CLOUDY    27  18  69 SE21G29   30.07F WCI  13
MORRIS         CLOUDY    28  18  64 S23       30.08F WCI  14
ALEXANDRIA     CLOUDY    25  13  60 S20       30.09F WCI  11
ELBOW LAKE     CLOUDY    26  17  68 S25       30.06F WCI  11
WADENA         PTSUNNY   25  12  58 SE15      30.07F WCI  12
GLENWOOD       CLOUDY    27  16  63 SE18G24   30.11F WCI  13
APPLETON       PTSUNNY   30  18  59 S17G25    30.10F WCI  18
BENSON         CLOUDY    28  16  59 S18G26    30.11F WCI  16
ORTONVILLE     CLOUDY    28  18  64 S16       30.07F WCI  17
MADISON        CLOUDY    28  18  64 S20G25    30.10F WCI  15
WILLMAR        FAIR      27  16  63 SE18      30.15F WCI  13
$$
MNZ033>034-036-042>043-049>051-058-059-030000-
   Central Minnesota

CITY           SKY/WX    TMP DP  RH WIND       PRES   REMARKS
ST CLOUD       MOSUNNY   26   9  48 S15       30.18F WCI  14
SAUK CENTRE    CLOUDY    26  14  59 SE17      30.13F WCI  13
PAYNESVILLE    CLOUDY    23  11  61 E13       30.16F WCI  11
AITKIN         CLEAR     28   7  40 S10G17    30.13F WCI  19
PINE RIVER     CLEAR     27  10  50 S13G21    30.14F WCI  16
BRAINERD       CLEAR     24   8  50 S13G23    30.14F WCI  12
STAPLES        CLOUDY    25   9  50 SE13      30.10F WCI  13
LONG PRAIRIE   CLOUDY    27  12  54 SE13      30.12F WCI  16
LITTLE FALLS   MOSUNNY   27  10  50 S10G18    30.16F WCI  17
LITCHFIELD     PTSUNNY   25  14  63 SE10      30.19F WCI  15
BUFFALO        MOSUNNY   25  10  52 SE9       30.22F WCI  16
MAPLE LAKE     CLOUDY    26  13  58 S9        30.21F WCI  17
$$
MNZ037-044-045-052-053-030000-
   East Central Minnesota

CITY           SKY/WX    TMP DP  RH WIND       PRES   REMARKS
PRINCETON      CLEAR     27  10  50 S10       30.20F WCI  17
MORA           CLEAR     27   9  46 S9        30.21F WCI  17
CAMBRIDGE      CLEAR     28  10  47 S8        30.20F WCI  20
RUSH CITY      CLEAR     25   7  45 S8        30.22F WCI  16
MOOSE LAKE     CLEAR     27   5  39 S8G17     30.17F WCI  18
HINCKLEY       FAIR      27   9  46 S10       30.21F WCI  17
CLOQUET        CLEAR     25   1  36 S14       30.17F WCI  13
MCGREGOR       CLEAR     28   9  43 S8        30.15F WCI  20
$$
MNZ071>073-080-081-089-090-097-098-030000-
   Southwest Minnesota

CITY           SKY/WX    TMP DP  RH WIND       PRES   REMARKS
MONTEVIDEO     CLOUDY    27  18  69 S13G23    30.13F WCI  16
GRANITE FALLS  CLOUDY    27  18  67 SE15G21   30.15F WCI  15
CANBY          CLOUDY    29  17  61 S15G22    30.10F WCI  18
MARSHALL       CLOUDY    27  16  63 S18G24    30.13F WCI  13
REDWOOD FALLS  CLOUDY    26  17  68 SE20      30.16F WCI  12
OLIVIA         CLOUDY    27  18  69 SE15      30.16F WCI  15
PIPESTONE      CLOUDY    27  19  74 S15       30.07F WCI  15
WINDOM         CLOUDY    25  18  74 SE15      30.15F WCI  12
WORTHINGTON    CLOUDY    25  18  74 S15G21    30.14F WCI  12
JACKSON        CLOUDY    27  19  74 SE13      30.16F WCI  16
TRACY          CLOUDY    27  19  70 S15G22    30.12F WCI  15
SLAYTON        CLOUDY    25  17  71 SE17      30.11F WCI  12
$$
MNZ065>067-074>077-082>085-091>093-030000-
   South Central Minnesota

CITY           SKY/WX    TMP DP  RH WIND       PRES   REMARKS
MANKATO        CLOUDY    23  12  63 SE15      30.22F WCI  10
NEW ULM        CLOUDY    25  16  68 SE15      30.19F WCI  12
ST JAMES       CLOUDY    27  19  74 SE15      30.20F WCI  15
FAIRMONT       CLOUDY    25  18  74 SE13      30.19F WCI  13
GLENCOE        CLOUDY    26  14  61 SE9       30.21F WCI  17
FARIBAULT      MOCLDY    21  12  68 SE10      30.24F WCI  10
OWATONNA       CLOUDY    21  10  63 SE9       30.24F WCI  11
WASECA         CLOUDY    21  12  68 S10       30.26F WCI  10
ALBERT LEA     PTSUNNY   21  14  73 S10G17    30.25F WCI  10
$$
MNZ078>079-086>088-094>096-030000-
   Southeast Minnesota

CITY           SKY/WX    TMP DP  RH WIND       PRES   REMARKS
ROCHESTER      CLOUDY    19  10  68 S9        30.26F WCI   8
RED WING       MOCLDY    25   5  42 S8        30.27F WCI  16
STANTON        MOCLDY    23  10  57 S10       30.24F WCI  13
DODGE CENTER   MOCLDY    19  12  73 S12       30.25F WCI   7
WINONA         CLOUDY    28   9  43 SW5       30.32F WCI  23
AUSTIN         MOCLDY    19  10  68 S7        30.26F WCI  10
PRESTON        CLOUDY    19  10  68 S8        30.27F HAZE    WCI   9
$$
ABBREVIATIONS USED IN REMARKS
   TC - TEMPERATURES IN CELSIUS
  WCI - WIND CHILL INDEX
   HX - HEAT INDEX
  VSB - VISIBILITY
$$



USA.gov is the U.S. government's official web portal to all federal, state and local government web resources and services.